FW3574 Weather Reports


Display with metric or nautical units.
time (UTC)temp
F
wind
direction
speed
MPH
gust
MPH
rain 1hr
in
rain 24hr
in
rain mn
in
humidity
%
barometer
mb
20200410101006 68 166 5.0 10.0 0.00 0.00 0.00 42 1023.8
20200410100506 68 220 3.0 9.0 0.00 0.00 0.00 41 1023.8
20200410100007 69 228 4.0 9.0 0.00 0.00 0.00 40 1023.8
20200410095503 68 186 5.0 9.0 0.00 0.00 0.00 42 1023.8
20200410095003 67 248 3.0 10.0 0.00 0.00 0.00 43 1023.8
20200410094504 67 234 7.0 10.0 0.00 0.00 0.00 42 1023.8
20200410094003 67 244 5.0 8.0 0.00 0.00 0.00 43 1023.8
20200410093503 66 262 3.0 7.0 0.00 0.00 0.00 43 1023.8
20200410093207 66 204 3.0 8.0 0.00 0.00 0.00 43 1023.8
20200410093002 66 202 4.0 8.0 0.00 0.00 0.00 43 1023.8
20200410092642 66 232 4.0 8.0 0.00 0.00 0.00 43 1023.7
20200410092059 67 202 5.0 7.0 0.00 0.00 0.00 43 1023.7
20200410091643 67 227 3.0 7.0 0.00 0.00 0.00 42 1023.7
20200410091057 67 191 1.0 5.0 0.00 0.00 0.00 42 1023.6
20200410090602 67 245 3.0 5.0 0.00 0.00 0.00 43 1023.6
20200410090201 66 233 1.0 5.0 0.00 0.00 0.00 44 1023.6
20200410085604 66 254 2.0 6.0 0.00 0.00 0.00 45 1023.4
20200410085057 66 246 4.0 6.0 0.00 0.00 0.00 44 1023.4
20200410084647 65 245 2.0 6.0 0.00 0.00 0.00 45 1023.4
20200410084052 64 243 1.0 5.0 0.00 0.00 0.00 47 1023.4
20200410083552 64 239 3.0 5.0 0.00 0.00 0.00 47 1023.4
20200410083155 64 239 3.0 5.0 0.00 0.00 0.00 48 1023.4
20200410082548 63 244 2.0 5.0 0.00 0.00 0.00 49 1023.3
20200410082049 63 241 2.0 5.0 0.00 0.00 0.00 51 1023.3
20200410081609 64 238 2.0 5.0 0.00 0.00 0.00 52 1023.3
20200410081051 64 229 1.0 5.0 0.00 0.00 0.00 53 1023.3
20200410080544 63 229 1.0 4.0 0.00 0.00 0.00 54 1023.3
20200410080150 63 229 1.0 3.0 0.00 0.00 0.00 55 1023.3
20200410075546 62 229 1.0 5.0 0.00 0.00 0.00 56 1023.2
20200410075119 61 230 2.0 5.0 0.00 0.00 0.00 57 1023.2
20200410074609 61 259 1.0 3.0 0.00 0.00 0.00 58 1023.2
20200410074038 61 259 1.0 3.0 0.00 0.00 0.00 58 1023.2
20200410073536 60 259 1.0 2.0 0.00 0.00 0.00 59 1023.2
20200410073114 60 259 0.0 4.0 0.00 0.00 0.00 60 1023.2
20200410072540 59 259 1.0 4.0 0.00 0.00 0.00 60 1023.2
20200410072031 59 260 2.0 4.0 0.00 0.00 0.00 61 1023.2
20200410071543 59 261 1.0 4.0 0.00 0.00 0.00 61 1023.2
20200410071028 58 263 1.0 4.0 0.00 0.00 0.00 62 1023.2
20200410070527 58 265 1.0 2.0 0.00 0.00 0.00 62 1023.2
20200410070040 58 265 1.0 4.0 0.00 0.00 0.00 63 1023.2
20200410065525 58 265 1.0 4.0 0.00 0.00 0.00 63 1023.2
20200410065022 58 265 1.0 2.0 0.00 0.00 0.00 63 1023.2
20200410064529 58 265 1.0 2.0 0.00 0.00 0.00 62 1023.2
20200410064020 59 265 0.0 2.0 0.00 0.00 0.00 62 1023.0
20200410063519 59 265 1.0 4.0 0.00 0.00 0.00 63 1023.0
20200410063034 58 265 1.0 2.0 0.00 0.00 0.00 63 1023.0
20200410062525 57 262 0.0 2.0 0.00 0.00 0.00 64 1022.8
20200410062015 57 262 0.0 1.0 0.00 0.00 0.00 63 1022.8
20200410061557 57 262 0.0 1.0 0.00 0.00 0.00 63 1022.8
20200410061011 57 262 0.0 2.0 0.00 0.00 0.00 66 1022.7
20200410060510 56 262 0.0 2.0 0.00 0.00 0.00 66 1022.7
20200410060014 56 262 0.0 1.0 0.00 0.00 0.00 66 1022.7
20200410055508 55 262 0.0 1.0 0.00 0.00 0.00 66 1022.6
20200410055006 55 262 0.0 2.0 0.00 0.00 0.00 66 1022.6
20200410054513 55 262 1.0 2.0 0.00 0.00 0.00 66 1022.6
20200410054003 55 262 1.0 2.0 0.00 0.00 0.00 66 1022.4
20200410053503 55 262 1.0 2.0 0.00 0.00 0.00 66 1022.4
20200410053004 55 262 1.0 2.0 0.00 0.00 0.00 68 1022.4
20200410052502 55 262 0.0 1.0 0.00 0.00 0.00 68 1022.3
20200410052001 55 262 0.0 0.0 0.00 0.00 0.00 68 1022.3
20200410051502 55 262 0.0 2.0 0.00 0.00 0.00 68 1022.3
20200410051003 55 262 0.0 2.0 0.00 0.00 0.00 68 1022.2
20200410050501 55 262 1.0 2.0 0.00 0.00 0.00 68 1022.2
20200410050148 55 262 0.0 2.0 0.00 0.00 0.00 68 1022.2
20200410045605 55 262 0.0 0.0 0.00 0.00 0.00 67 1022.2
20200410045100 55 262 0.0 2.0 0.00 0.00 0.00 66 1022.2
20200410044716 55 262 0.0 2.0 0.00 0.00 0.00 66 1022.2
20200410044111 55 262 0.0 2.0 0.00 0.00 0.00 67 1022.2
20200410043603 55 262 1.0 2.0 0.00 0.00 0.00 67 1022.2
20200410043132 55 262 0.0 2.0 0.00 0.00 0.00 66 1022.2
20200410042559 55 262 0.0 2.0 0.00 0.00 0.00 66 1022.2
20200410042107 55 262 1.0 4.0 0.00 0.00 0.00 67 1022.2
20200410041656 55 262 1.0 2.0 0.00 0.00 0.00 67 1022.2
20200410041059 55 262 1.0 2.0 0.00 0.00 0.00 67 1022.2
20200410040601 55 262 1.0 2.0 0.00 0.00 0.00 67 1022.2
20200410040159 55 262 1.0 2.0 0.00 0.00 0.00 67 1022.2
20200410035558 55 262 1.0 2.0 0.00 0.00 0.00 67 1022.2
20200410035057 55 262 1.0 2.0 0.00 0.00 0.00 67 1022.2
20200410034656 55 262 1.0 4.0 0.00 0.00 0.00 67 1022.2
20200410034057 55 262 1.0 4.0 0.00 0.00 0.00 66 1022.2
20200410033623 55 262 1.0 2.0 0.00 0.00 0.00 68 1022.2
20200410033145 55 262 0.0 0.0 0.00 0.00 0.00 68 1022.2
20200410032625 55 262 0.0 2.0 0.00 0.00 0.00 67 1022.2
20200410032106 55 262 1.0 2.0 0.00 0.00 0.00 67 1022.2
20200410031729 55 262 0.0 2.0 0.00 0.00 0.00 66 1022.2
20200410031056 55 262 0.0 2.0 0.00 0.00 0.00 66 1022.1
20200410030558 55 262 0.0 2.0 0.00 0.00 0.00 66 1022.1
20200410030114 55 262 1.0 2.0 0.00 0.00 0.00 66 1022.1
20200410025604 55 262 1.0 4.0 0.00 0.00 0.00 66 1022.2
20200410025054 56 262 1.0 3.0 0.00 0.00 0.00 66 1022.2
20200410024741 56 262 2.0 3.0 0.00 0.00 0.00 66 1022.2
20200410024053 56 262 1.0 3.0 0.00 0.00 0.00 66 1022.2
20200410023552 56 262 1.0 2.0 0.00 0.00 0.00 66 1022.2
20200410023237 56 262 0.0 0.0 0.00 0.00 0.00 66 1022.2
20200410022559 57 262 0.0 2.0 0.00 0.00 0.00 66 1022.2
20200410022106 56 262 1.0 3.0 0.00 0.00 0.00 66 1022.2
20200410021637 56 262 2.0 4.0 0.00 0.00 0.00 68 1022.2
20200410021052 56 262 1.0 2.0 0.00 0.00 0.00 68 1022.2
20200410020555 56 262 1.0 2.0 0.00 0.00 0.00 68 1022.2
20200410020212 56 261 0.0 0.0 0.00 0.00 0.00 67 1022.2
20200410015605 56 261 0.0 0.0 0.00 0.00 0.00 67 1022.2
20200410015053 56 261 0.0 2.0 0.00 0.00 0.00 67 1022.2
20200410014706 56 261 0.0 4.0 0.00 0.00 0.00 66 1022.2
20200410014050 56 261 1.0 3.0 0.00 0.00 0.00 66 1022.2
20200410013557 56 261 0.0 2.0 0.00 0.00 0.00 65 1022.2
20200410013130 57 261 0.0 2.0 0.00 0.00 0.00 65 1022.2
20200410012548 57 261 1.0 4.0 0.00 0.00 0.00 66 1022.3
20200410012048 57 261 1.0 4.0 0.00 0.00 0.00 67 1022.3
20200410011626 57 281 1.0 2.0 0.00 0.00 0.00 66 1022.3
20200410011102 58 290 1.0 2.0 0.00 0.00 0.00 66 1022.3
20200410010546 58 290 1.0 2.0 0.00 0.00 0.00 66 1022.3
20200410010240 58 290 0.0 0.0 0.00 0.00 0.00 66 1022.3
20200410005551 58 290 0.0 1.0 0.00 0.00 0.00 64 1022.6
20200410005045 58 290 0.0 1.0 0.00 0.00 0.00 65 1022.6
20200410004620 58 290 0.0 2.0 0.00 0.00 0.00 65 1022.6
20200410004044 58 290 0.0 2.0 0.00 0.00 0.00 65 1022.7
20200410003547 58 290 0.0 2.0 0.00 0.00 0.00 63 1022.7
20200410003146 58 290 0.0 2.0 0.00 0.00 0.00 63 1022.7
20200410002556 58 290 0.0 2.0 0.00 0.00 0.00 63 1022.7
20200410002048 58 290 1.0 2.0 0.00 0.00 0.00 64 1022.7
20200410001625 58 290 0.0 1.0 0.00 0.00 0.00 66 1022.7
20200410001043 58 290 0.0 2.0 0.00 0.00 0.00 67 1022.8
20200410000544 58 290 0.0 4.0 0.00 0.00 0.00 65 1022.8
20200410000105 58 290 1.0 4.0 0.00 0.00 0.00 66 1022.8
20200409235620 58 290 1.0 3.0 0.00 0.00 0.00 68 1022.7
20200409235040 58 236 0.0 1.0 0.00 0.00 0.00 72 1022.7
20200409234608 58 236 0.0 1.0 0.00 0.00 0.00 71 1022.7
20200409234039 58 236 0.0 2.0 0.00 0.00 0.00 71 1022.8
20200409233551 58 236 0.0 1.0 0.00 0.00 0.00 71 1022.8
20200409233038 58 236 0.0 1.0 0.00 0.00 0.00 72 1022.8
20200409232536 58 236 0.0 1.0 0.00 0.00 0.00 72 1023.0
20200409232043 58 236 0.0 1.0 0.00 0.00 0.00 73 1023.0
20200409231643 58 236 0.0 1.0 0.00 0.00 0.00 74 1023.0
20200409231036 58 236 0.0 1.0 0.00 0.00 0.00 75 1023.2
20200409230540 58 236 0.0 1.0 0.00 0.00 0.00 76 1023.2
20200409230105 58 236 0.0 1.0 0.00 0.00 0.00 77 1023.2
20200409225535 58 236 0.0 1.0 0.00 0.00 0.00 77 1023.2
20200409225035 58 236 0.0 1.0 0.00 0.00 0.00 78 1023.2
20200409224629 58 236 0.0 1.0 0.00 0.00 0.00 78 1023.2
20200409224034 58 236 0.0 2.0 0.00 0.00 0.00 79 1023.1
20200409223535 59 236 0.0 4.0 0.00 0.00 0.00 80 1023.1
20200409223103 59 236 1.0 3.0 0.00 0.00 0.00 80 1023.1
20200409222533 59 237 0.0 2.0 0.00 0.00 0.00 81 1023.1
20200409222032 59 237 1.0 2.0 0.00 0.00 0.00 81 1023.1
20200409221550 59 237 0.0 1.0 0.00 0.00 0.00 81 1023.1
20200409221033 59 237 0.0 4.0 0.00 0.00 0.00 81 1023.2
20200409220529 59 237 0.0 4.0 0.00 0.00 0.00 81 1023.2
20200409220143 59 237 0.0 4.0 0.00 0.00 0.00 80 1023.2
20200409215550 59 237 1.0 4.0 0.00 0.00 0.00 80 1023.2
20200409215028 59 237 1.0 4.0 0.00 0.00 0.00 81 1023.2
20200409214558 59 237 1.0 3.0 0.00 0.00 0.00 81 1023.2
20200409214034 59 237 1.0 3.0 0.00 0.00 0.00 81 1023.2
20200409213535 60 237 1.0 2.0 0.00 0.00 0.00 81 1023.2
20200409213111 60 237 1.0 3.0 0.00 0.00 0.00 81 1023.2
20200409212527 60 237 1.0 3.0 0.00 0.00 0.00 81 1023.3
20200409212033 60 237 1.0 4.0 0.00 0.00 0.00 81 1023.3
20200409211537 60 237 1.0 5.0 0.00 0.00 0.00 82 1023.3
20200409211026 60 230 2.0 3.0 0.00 0.00 0.00 82 1023.3
20200409210526 60 229 1.0 4.0 0.00 0.00 0.00 82 1023.3
20200409210028 60 230 1.0 3.0 0.00 0.00 0.00 82 1023.3
20200409205540 60 225 2.0 3.0 0.00 0.00 0.00 82 1023.2
20200409205032 60 223 1.0 5.0 0.00 0.00 0.00 83 1023.2
20200409204627 60 223 3.0 5.0 0.00 0.00 0.00 83 1023.2
20200409204027 60 223 3.0 5.0 0.00 0.00 0.00 83 1023.2
20200409203532 60 223 2.0 5.0 0.00 0.00 0.00 83 1023.2
20200409203048 60 225 2.0 5.0 0.00 0.00 0.00 83 1023.2
20200409202525 60 225 2.0 5.0 0.00 0.00 0.00 83 1023.2
20200409202025 60 225 3.0 5.0 0.00 0.00 0.00 83 1023.2
20200409201548 60 232 1.0 6.0 0.00 0.00 0.00 83 1023.2
20200409201034 60 235 2.0 7.0 0.00 0.00 0.00 83 1023.1
20200409200537 60 233 4.0 7.0 0.00 0.00 0.00 83 1023.1
20200409200122 60 256 3.0 7.0 0.00 0.00 0.00 83 1023.1
20200409195524 60 241 3.0 8.0 0.00 0.00 0.00 84 1022.9
20200409195024 60 236 5.0 8.0 0.00 0.00 0.00 83 1022.9
20200409194525 60 244 5.0 8.0 0.00 0.00 0.00 84 1022.9
20200409194024 60 242 3.0 7.0 0.00 0.00 0.00 83 1022.7
20200409193528 60 246 4.0 8.0 0.00 0.00 0.00 83 1022.7
20200409193026 60 242 6.0 9.0 0.00 0.00 0.00 82 1022.7
20200409192523 60 248 5.0 10.0 0.00 0.00 0.00 81 1022.7
20200409192024 61 225 6.0 10.0 0.00 0.00 0.00 79 1022.7
20200409191533 61 211 6.0 9.0 0.00 0.00 0.00 77 1022.7
20200409191024 61 255 6.0 9.0 0.00 0.00 0.00 75 1022.5
20200409190529 61 247 4.0 8.0 0.00 0.00 0.00 73 1022.5
20200409190056 61 254 5.0 9.0 0.00 0.00 0.00 71 1022.5
20200409185528 61 239 5.0 9.0 0.00 0.00 0.00 70 1022.3
20200409185022 61 252 5.0 10.0 0.00 0.00 0.00 70 1022.3
20200409184537 61 253 5.0 10.0 0.00 0.00 0.00 70 1022.3
20200409184023 61 232 7.0 10.0 0.00 0.00 0.00 69 1022.2
20200409183523 62 237 5.0 10.0 0.00 0.00 0.00 68 1022.2
20200409183022 62 257 6.0 10.0 0.00 0.00 0.00 68 1022.2
20200409182522 62 221 5.0 10.0 0.00 0.00 0.00 67 1022.2
20200409182022 62 232 6.0 9.0 0.00 0.00 0.00 65 1022.2
20200409181540 63 259 5.0 9.0 0.00 0.00 0.00 66 1022.2
20200409181025 63 217 4.0 10.0 0.00 0.00 0.00 66 1022.2
20200409180521 63 234 6.0 11.0 0.00 0.00 0.00 65 1022.2
20200409180107 63 234 6.0 9.0 0.00 0.00 0.00 64 1022.2
20200409175539 63 234 5.0 12.0 0.00 0.00 0.00 65 1022.1
20200409175028 64 220 6.0 12.0 0.00 0.00 0.00 65 1022.1
20200409174608 64 216 7.0 9.0 0.00 0.00 0.00 66 1022.1
20200409174036 64 227 4.0 10.0 0.00 0.00 0.00 64 1022.1
20200409173537 64 238 6.0 12.0 0.00 0.00 0.00 64 1022.1
20200409173106 64 183 7.0 13.0 0.00 0.00 0.00 65 1022.1
20200409172520 64 190 7.0 13.0 0.00 0.00 0.00 65 1022.1
20200409172019 64 221 4.0 11.0 0.00 0.00 0.00 66 1022.1
20200409171611 64 198 9.0 11.0 0.00 0.00 0.00 66 1022.1
20200409171026 64 197 5.0 13.0 0.00 0.00 0.00 66 1022.0
20200409170526 65 214 8.0 13.0 0.00 0.00 0.00 65 1022.0
20200409170033 65 226 7.0 10.0 0.00 0.00 0.00 64 1022.0
20200409165519 65 227 4.0 12.0 0.00 0.00 0.00 65 1021.9
20200409165023 65 227 8.0 12.0 0.00 0.00 0.00 62 1021.9
20200409164526 66 226 7.0 14.0 0.00 0.00 0.00 63 1021.9
20200409164019 65 220 5.0 15.0 0.00 0.00 0.00 63 1021.8
20200409163519 65 186 6.0 15.0 0.00 0.00 0.00 63 1021.8
20200409163023 65 191 8.0 12.0 0.00 0.00 0.00 63 1021.8
20200409162518 65 180 6.0 11.0 0.00 0.00 0.00 62 1021.8
20200409162020 65 232 8.0 10.0 0.00 0.00 0.00 62 1021.8
20200409161527 66 246 7.0 12.0 0.00 0.00 0.00 60 1021.8
20200409161020 66 167 6.0 10.0 0.00 0.00 0.00 60 1021.9
20200409160517 66 229 7.0 13.0 0.00 0.00 0.00 59 1021.9
20200409160040 66 200 9.0 13.0 0.00 0.00 0.00 59 1021.9
20200409155517 66 192 4.0 11.0 0.00 0.00 0.00 61 1022.0
20200409155015 66 194 5.0 13.0 0.00 0.00 0.00 61 1022.0
20200409154532 66 155 6.0 13.0 0.00 0.00 0.00 61 1022.0
20200409154019 66 223 6.0 13.0 0.00 0.00 0.00 61 1022.1
20200409153515 66 144 7.0 12.0 0.00 0.00 0.00 61 1022.1
20200409153018 66 220 8.0 12.0 0.00 0.00 0.00 60 1022.1
20200409152515 66 212 4.0 12.0 0.00 0.00 0.00 59 1022.1
20200409152015 66 223 8.0 12.0 0.00 0.00 0.00 60 1022.1
20200409151524 66 225 7.0 12.0 0.00 0.00 0.00 69 1022.1
20200409151018 65 229 2.0 11.0 0.00 0.00 0.00 68 1022.2
20200409150513 65 178 5.0 10.0 0.00 0.00 0.00 70 1022.2
20200409150015 64 200 5.0 10.0 0.00 0.00 0.00 70 1022.2
20200409145512 64 151 6.0 12.0 0.00 0.00 0.00 69 1022.2
20200409145014 64 173 6.0 12.0 0.00 0.00 0.00 70 1022.2
20200409144522 64 167 5.0 12.0 0.00 0.00 0.00 69 1022.2
20200409144011 64 144 6.0 12.0 0.00 0.00 0.00 68 1022.4
20200409143511 65 118 5.0 13.0 0.00 0.00 0.00 65 1022.4
20200409143106 65 180 5.0 13.0 0.00 0.00 0.00 66 1022.4
20200409142511 65 178 5.0 12.0 0.00 0.00 0.00 67 1022.7
20200409142023 65 159 7.0 12.0 0.00 0.00 0.00 68 1022.7
20200409141543 65 161 6.0 13.0 0.00 0.00 0.00 70 1022.7
20200409141014 64 170 6.0 13.0 0.00 0.00 0.00 71 1022.7
20200409140510 65 140 6.0 11.0 0.00 0.00 0.00 66 1022.7
20200409140019 64 175 6.0 11.0 0.00 0.00 0.00 68 1022.7
20200409135510 63 149 5.0 12.0 0.00 0.00 0.00 73 1022.9
20200409135010 63 130 5.0 12.0 0.00 0.00 0.00 72 1022.9
20200409134522 63 113 7.0 10.0 0.00 0.00 0.00 70 1022.9
20200409134009 63 82 4.0 11.0 0.00 0.00 0.00 70 1023.2
20200409133512 63 148 5.0 11.0 0.00 0.00 0.00 69 1023.2
20200409133015 63 163 5.0 9.0 0.00 0.00 0.00 70 1023.2
20200409132510 63 101 5.0 13.0 0.00 0.00 0.00 68 1023.3
20200409132008 63 94 6.0 13.0 0.00 0.00 0.00 68 1023.3
20200409131509 63 143 6.0 10.0 0.00 0.00 0.00 68 1023.3
20200409131008 63 157 5.0 10.0 0.00 0.00 0.00 66 1023.4
20200409130522 63 69 4.0 11.0 0.00 0.00 0.00 68 1023.4
20200409130039 64 157 4.0 12.0 0.00 0.00 0.00 66 1023.4
20200409125508 64 169 5.0 12.0 0.00 0.00 0.00 68 1023.4
20200409125008 63 166 6.0 9.0 0.00 0.00 0.00 68 1023.4
20200409124525 65 138 4.0 11.0 0.00 0.00 0.00 66 1023.4
20200409124021 66 135 3.0 13.0 0.00 0.00 0.00 65 1023.3
20200409123516 66 195 7.0 13.0 0.00 0.00 0.00 66 1023.3
20200409123006 65 171 4.0 9.0 0.00 0.00 0.00 63 1023.3
20200409122505 65 180 2.0 9.0 0.00 0.00 0.00 64 1023.6
20200409122004 65 135 4.0 9.0 0.00 0.00 0.00 60 1023.6
20200409121505 65 169 4.0 11.0 0.00 0.00 0.00 64 1023.6
20200409121008 65 175 5.0 11.0 0.00 0.00 0.00 67 1023.7
20200409120504 64 132 2.0 9.0 0.00 0.00 0.00 69 1023.7
20200409120007 63 138 6.0 11.0 0.00 0.00 0.00 71 1023.7
20200409115503 63 101 6.0 11.0 0.00 0.00 0.00 71 1023.8
20200409115003 64 134 4.0 12.0 0.00 0.00 0.00 66 1023.8
20200409114531 64 97 7.0 12.0 0.00 0.00 0.00 65 1023.8
20200409114002 64 185 4.0 8.0 0.00 0.00 0.00 62 1023.8
20200409113502 65 116 4.0 10.0 0.00 0.00 0.00 63 1023.8
20200409113004 64 157 1.0 11.0 0.00 0.00 0.00 64 1023.8
20200409112502 64 123 7.0 11.0 0.00 0.00 0.00 64 1023.8
20200409112004 64 126 3.0 10.0 0.00 0.00 0.00 65 1023.8
20200409111509 65 126 4.0 10.0 0.00 0.00 0.00 63 1023.8
20200409111000 65 128 3.0 7.0 0.00 0.00 0.00 63 1023.8
20200409110609 65 174 4.0 9.0 0.00 0.00 0.00 60 1023.8
20200409110250 65 213 4.0 9.0 0.00 0.00 0.00 61 1023.8
20200409105558 64 182 3.0 8.0 0.00 0.00 0.00 63 1023.8
20200409105058 64 175 3.0 8.0 0.00 0.00 0.00 63 1023.8
20200409104702 64 177 4.0 8.0 0.00 0.00 0.00 64 1023.8
20200409104105 64 167 5.0 8.0 0.00 0.00 0.00 65 1024.0
20200409103601 64 162 2.0 7.0 0.00 0.00 0.00 66 1024.0
20200409103123 63 169 5.0 7.0 0.00 0.00 0.00 66 1024.0
20200409102557 64 172 2.0 8.0 0.00 0.00 0.00 66 1024.2
20200409102108 64 188 2.0 8.0 0.00 0.00 0.00 66 1024.2
20200409101820 64 165 2.0 8.0 0.00 0.00 0.00 65 1024.2